TimeMST,TemperatureF,Dew PointF,Humidity,Sea Level PressureIn,VisibilityMPH,Wind Direction,Wind SpeedMPH,Gust SpeedMPH,PrecipitationIn,Events,Conditions,WindDirDegrees,DateUTC
12:53 AM,15.1,12.0,88,29.90,10.0,SW,8.1,-,N/A,,Clear,230,2012-12-11 07:53:00
1:53 AM,10.0,7.0,87,29.89,10.0,WSW,6.9,-,N/A,,Clear,250,2012-12-11 08:53:00
2:53 AM,7.0,6.1,96,29.89,10.0,SSW,4.6,-,N/A,,Clear,210,2012-12-11 09:53:00
3:26 AM,6.8,5.0,92,29.78,2.5,Calm,Calm,-,N/A,,Scattered Clouds,0,2012-12-11 10:26:00
3:29 AM,8.6,5.0,85,29.78,1.0,Calm,Calm,-,N/A,,Scattered Clouds,0,2012-12-11 10:29:00
3:36 AM,6.8,5.0,92,29.78,0.5,WSW,3.5,-,N/A,Fog,Light Freezing Fog,240,2012-12-11 10:36:00
3:53 AM,6.1,3.0,87,29.88,4.0,West,3.5,-,N/A,,Overcast,260,2012-12-11 10:53:00
4:53 AM,12.9,9.0,84,29.86,10.0,Calm,Calm,-,N/A,,Overcast,0,2012-12-11 11:53:00
5:53 AM,12.9,10.0,88,29.84,10.0,East,4.6,-,N/A,,Overcast,90,2012-12-11 12:53:00
6:53 AM,15.1,12.0,88,29.82,10.0,Calm,Calm,-,N/A,,Overcast,0,2012-12-11 13:53:00
7:53 AM,15.1,12.0,88,29.81,10.0,NE,3.5,-,N/A,,Overcast,50,2012-12-11 14:53:00
8:53 AM,16.0,12.9,88,29.77,10.0,ENE,8.1,-,N/A,,Overcast,60,2012-12-11 15:53:00
9:53 AM,18.0,14.0,84,29.75,10.0,ENE,5.8,-,N/A,,Clear,60,2012-12-11 16:53:00
10:53 AM,21.0,16.0,81,29.71,10.0,East,5.8,-,N/A,,Clear,80,2012-12-11 17:53:00
11:53 AM,24.1,17.1,75,29.68,10.0,ENE,4.6,-,N/A,,Overcast,60,2012-12-11 18:53:00
12:53 PM,26.1,19.0,75,29.64,10.0,ENE,4.6,-,N/A,,Overcast,60,2012-12-11 19:53:00
1:50 PM,26.6,21.2,80,29.51,1.8,ENE,5.8,-,0.00,Snow,Light Snow,70,2012-12-11 20:50:00
1:53 PM,27.0,21.9,81,29.61,1.8,ENE,6.9,-,0.00,Snow,Light Snow,70,2012-12-11 20:53:00
2:04 PM,26.6,21.2,80,29.51,3.0,ENE,3.5,-,0.00,Snow,Light Snow,70,2012-12-11 21:04:00
2:53 PM,28.0,23.0,81,29.58,10.0,East,5.8,-,0.00,,Overcast,80,2012-12-11 21:53:00
3:53 PM,28.0,24.1,85,29.58,10.0,NNE,4.6,-,N/A,,Overcast,30,2012-12-11 22:53:00
4:53 PM,28.0,25.0,88,29.53,10.0,South,5.8,-,N/A,,Overcast,170,2012-12-11 23:53:00
5:53 PM,34.0,26.1,73,29.52,10.0,WSW,9.2,-,N/A,,Overcast,240,2012-12-12 00:53:00
6:53 PM,34.0,27.0,75,29.52,10.0,SW,10.4,-,N/A,,Overcast,230,2012-12-12 01:53:00
7:53 PM,30.0,25.0,82,29.53,10.0,West,5.8,-,N/A,,Overcast,270,2012-12-12 02:53:00
8:53 PM,30.9,26.1,82,29.54,10.0,West,4.6,-,N/A,,Overcast,270,2012-12-12 03:53:00
9:53 PM,30.9,25.0,79,29.55,10.0,NW,8.1,-,N/A,,Overcast,320,2012-12-12 04:53:00
10:53 PM,28.9,24.1,82,29.56,10.0,West,8.1,-,N/A,,Mostly Cloudy,260,2012-12-12 05:53:00
11:53 PM,28.0,24.1,85,29.58,10.0,SSW,3.5,-,N/A,,Clear,200,2012-12-12 06:53:00